TIME,DELAY(SENSOR),PRES,T(CTD),SAL,OXYGEN,RAWTEMP,T(OPTODE),TCPHASE,FLUOR,BETA(BETA700),BETA(BETA412),BETA(BETA440),CDOM,C(CSC),ED(ED412.40),ED(ED444.00),ED(ED489.70),ED(ED554.30),LU(LU411.80),LU(LU443.40),LU(LU489.60),LU(LU554.10),COMP,TILTX,TILTX(TILTY),CHECK
1367963313,5809,496.1799926757812500,6.7473001480102540,34.1010017395019500,85.9315795898437500,595.3015136718750000,6.7359428405761720,48.1548614501953100,52,104,86,79,78,14671,2147749339,2147424786,2148005979,2147874386,2147629650,2147069394,2148243638,2147202870,1633,4,13,60439
1367963416,5810,485.4500122070312500,6.9717998504638670,34.0957984924316400,93.5012130737304700,588.5930175781250000,6.9521408081054690,47.2113800048828100,52,103,84,80,78,14675,2147750573,2147425243,2148008649,2147875209,2147627547,2147068050,2148246326,2147204288,1286,3,13,52698
1367963546,5807,473.4700012207031000,7.2125000953674320,34.0975990295410160,100.7880020141601600,581.1644287109375000,7.1910610198974610,46.3154716491699200,51,102,87,80,77,14677,2147745965,2147425088,2148006272,2147875218,2147625142,2147081252,2148239826,2147198509,1701,4,13,49501
1367963697,5806,462.4100036621094000,7.4063000679016110,34.0960998535156250,107.5877990722656200,575.2462768554688000,7.3810439109802250,45.5216102600097660,51,106,86,80,76,14672,2147746121,2147422381,2148006400,2147873298,2147628379,2147079232,2148240676,2147200274,441,4,13,33271
1367963854,5807,450.2300109863281000,7.7041001319885250,34.0945014953613300,116.3534011840820300,565.7730712890625000,7.6845068931579590,44.4958915710449200,51,102,87,80,76,14676,2147746084,2147421092,2148008219,2147875958,2147624228,2147080950,2148241325,2147202066,2845,3,13,59519
1367963981,5808,438.7600097656250000,8.1211996078491210,34.0836982727050800,130.2167968750000000,552.7957763671875000,8.0989627838134770,42.9810218811035160,50,105,88,81,75,14674,2147745444,2147425417,2148005193,2147874258,2147622793,2147081472,2148236608,2147202934,2414,4,13,38044
1367964098,5807,427.6499938964844000,8.3491001129150390,34.0812988281250000,144.1291046142578000,545.3237915039062000,8.3369560241699220,41.6435203552246100,50,103,90,80,74,14675,2147746011,2147420937,2148004132,2147874139,2147620690,2147083017,2148234624,2147202130,311,4,13,33317
1367964213,5812,416.7099914550781000,8.5993995666503900,34.0782012939453100,155.0238952636718800,537.3532104492188000,8.5903320312500000,40.6187210083007800,50,104,84,79,74,14677,2147746240,2147425179,2148005668,2147874203,2147620864,2147087213,2148233270,2147201883,2799,3,13,60899
1367964328,5809,406.2799987792969000,9.0583000183105470,34.0896987915039060,167.7740020751953000,523.4362792968750000,9.0315341949462890,39.4036483764648440,50,103,87,80,73,14675,2147741540,2147427565,2148005540,2147871945,2147618413,2147088374,2148223835,2147205330,1651,4,13,54124
1367964457,5808,395.0199890136719000,9.2943000793457030,34.0984992980957000,176.6338043212890600,515.7410278320312000,9.2748613357543950,38.6335792541503900,50,102,88,80,72,14674,2147738889,2147424521,2148006857,2147872155,2147619629,2147094253,2148229750,2147202889,3521,3,13,329
1367964584,5807,384.4500122070312500,9.4156999588012700,34.1041984558105500,182.2402954101562500,511.0784912109375000,9.4220800399780270,38.1662101745605500,50,103,88,79,71,14674,2147737755,2147426523,2148006976,2147874212,2147617554,2147095707,2148224512,2147200530,1711,4,14,20225
1367964713,5806,373.9400024414062500,9.7929000854492190,34.1167984008789060,190.1976928710937500,498.8988037109375000,9.8059139251708980,37.4272193908691400,49,104,85,80,71,14672,2147736667,2147424822,2148007296,2147874605,2147614948,2147100754,2148226724,2147206848,2138,3,13,22085
1367964852,5809,362.8999938964844000,10.1759004592895500,34.1333999633789060,197.5202941894531200,487.3208007812500000,10.1698303222656250,36.7640190124511700,49,104,84,80,71,14674,2147735250,2147424457,2148008100,2147874578,2147612772,2147103186,2148226898,2147202240,1754,3,13,41496
1367965003,5810,351.7900085449219000,10.5574998855590820,34.1567993164062500,199.8583984375000000,475.0759887695312500,10.5537395477294920,36.4143218994140600,49,104,84,78,71,14673,2147733549,2147425746,2148006774,2147872557,2147608265,2147101869,2148223606,2147204443,902,4,13,63891
1367965139,5810,339.9100036621094000,10.7891998291015620,34.1652984619140600,205.8679962158203000,467.6611022949219000,10.7857599258422850,35.9269981384277340,48,102,87,79,68,14671,2147734217,2147426944,2148015917,2147872155,2147606756,2147107465,2148220114,2147205046,2606,3,13,862
1367965242,5809,329.3900146484375000,11.1700000762939450,34.1752014160156250,208.4450988769531200,454.5168151855469000,11.1962299346923830,35.5593605041503900,48,104,88,80,70,14676,2147728740,2147431094,2148020900,2147873883,2147608091,2147110336,2148225133,2147207579,2787,3,14,48814
1367965357,5806,318.2600097656250000,11.8148002624511720,34.2067985534668000,210.9559936523437500,435.4354858398437500,11.7903299331665040,35.1046714782714840,49,105,84,80,68,14672,2147731282,2147430966,2148021458,2147872493,2147603273,2147107757,2148224685,2147205092,1604,3,13,53370
1367965475,5809,307.2799987792969000,12.1822996139526370,34.2288017272949200,213.2467041015625000,422.8008117675781000,12.1826496124267580,34.7724800109863300,48,104,86,80,69,14667,2147732077,2147435712,2148041179,2147872877,2147604260,2147127826,2148228845,2147207277,1577,3,14,13083
1367965602,5807,296.1199951171875000,12.4918003082275390,34.2426986694335940,213.6389007568359400,413.0875854492187500,12.4837102890014650,34.5975914001464840,48,102,88,80,69,14669,2147726436,2147433508,2148026157,2147873142,2147600612,2147120667,2148218358,2147206838,1026,4,13,41606
1367965731,5807,286.0100097656250000,13.1698999404907230,34.2795982360839840,214.4523010253906200,389.9762878417969000,13.1982898712158200,34.1925086975097660,48,103,87,79,67,14672,2147727881,2147431561,2148021924,2147873417,2147596763,2147124269,2148213988,2147207222,271,4,14,54268
1367965894,5809,274.6799926757812500,13.9639997482299800,34.3445014953613300,215.8159027099609400,365.1911010742187500,13.9621801376342770,33.7381896972656250,47,103,87,80,68,14667,2147725403,2147453604,2148082660,2147872996,2147592786,2147141467,2148240000,2147214976,2764,3,13,7924
1367966054,5809,263.6900024414062500,14.8529996871948240,34.4253997802734400,217.1107025146484400,336.2792053222656000,14.8505802154541020,33.2351188659668000,48,102,86,79,67,14667,2147724114,2147469741,2148127817,2147873362,2147592054,2147157147,2148260626,2147213156,1038,3,13,8289
1367966193,5810,252.4199981689453000,15.4568996429443360,34.4883995056152340,217.5697937011718800,316.3847045898437500,15.4605197906494140,32.9178314208984400,49,102,84,80,67,14665,2147721810,2147482797,2148142710,2147873718,2147588891,2147167552,2148262025,2147211465,2739,2,14,60261
1367966365,5807,238.6799926757812500,16.1854991912841800,34.5712013244628900,218.3038024902343800,292.9354858398437500,16.1783294677734380,32.5393409729003900,48,103,85,81,65,14665,2147718400,2147478052,2148114368,2147872676,2147583350,2147171410,2148244964,2147217307,1712,3,13,42320
1367966492,5808,226.4799957275390600,16.8491992950439450,34.6556015014648440,214.4485015869140600,271.0184936523437500,16.8484191894531250,32.4352416992187500,50,104,89,81,66,14658,2147740489,2147604379,2148395858,2147872640,2147586962,2147251958,2148380562,2147229138,1179,3,14,5014
1367966595,5807,215.4199981689453000,17.2952003479003900,34.7092018127441400,212.7696990966797000,255.4273071289062500,17.3247699737548830,32.3069381713867200,49,105,87,79,66,14656,2147744009,2147603556,2148371748,2147873170,2147586861,2147259702,2148368082,2147224109,182,3,14,64863
1367966689,5808,204.8500061035156200,18.0168991088867200,34.7979011535644500,212.4199066162109400,233.1779937744140600,18.0042896270751950,32.0144882202148440,50,108,87,80,65,14646,2147790089,2147800320,2148746614,2147874962,2147601453,2147372196,2148553069,2147236662,204,3,14,18728
1367966768,5805,195.8200073242187500,18.2320003509521500,34.8325996398925800,214.1065063476562500,225.5281982421875000,18.2378997802734380,31.8166007995605470,51,106,87,81,64,14644,2147835044,2147948891,2149001225,2147874505,2147622537,2147476041,2148682422,2147249956,680,3,15,5670
1367966823,5811,189.6199951171875000,18.4633007049560550,34.8647994995117200,214.8444061279297000,217.1757965087890600,18.4929695129394530,31.6615104675292970,53,109,87,81,64,14648,2147895835,2148148498,2149352045,2147875090,2147645558,2147589449,2148854893,2147263021,450,3,14,12499
1367966878,5808,183.6300048828125000,18.7488002777099600,34.9011001586914060,215.2017974853515600,208.7135925292968800,18.7514190673828120,31.5263805389404300,53,109,87,80,64,14645,2147948114,2148270537,2149534692,2147876059,2147668160,2147669430,2148943259,2147269888,149,2,14,53675
1367966933,5810,177.9100036621093800,18.9480991363525400,34.9276008605957000,214.8928985595703000,200.2769012451172000,19.0091209411621100,31.4274291992187500,54,112,90,80,64,14637,2148037174,2148499209,2149915885,2147877238,2147703222,2147809097,2149134025,2147283538,3469,2,15,1008
1367967008,5808,171.3800048828125000,19.4930992126464840,34.9971008300781250,214.1569976806640600,184.6269989013672000,19.4873199462890620,31.2543601989746100,60,113,88,81,63,14635,2148158528,2148757403,2150310592,2147881325,2147752082,2147962724,2149323986,2147298130,3348,2,15,41089
1367967063,5807,167.4600067138672000,19.6387996673584000,35.0215988159179700,215.0372009277343800,179.9922027587890600,19.6289901733398440,31.1445293426513670,61,112,90,81,64,14631,2148257828,2148938313,2150581412,2147882697,2147798162,2148073362,2149461147,2147309842,3109,2,15,33087
1367967118,5812,163.9700012207031200,19.8705997467041000,35.0456008911132800,214.4064025878906200,171.8605957031250000,19.8776092529296880,31.0686397552490230,67,117,91,81,63,14621,2148349549,2149096768,2150795401,2147885001,2147833024,2148168320,2149561709,2147317238,2921,2,14,42611
1367967185,5809,160.5299987792968800,20.3355998992919920,35.0918998718261700,213.1134948730468800,157.7413940429687500,20.3095397949218750,30.9480304718017580,82,120,87,82,63,14608,2148484946,2149328356,2151131712,2147890806,2147884809,2148272246,2149688960,2147325513,2126,2,15,4024
1367967276,5809,156.2100067138672000,20.3939990997314450,35.0965995788574200,213.3262939453125000,154.9857025146484400,20.3938808441162100,30.8998508453369140,87,119,91,82,62,14602,2148717760,2149721408,2151688064,2147893467,2147974838,2148458934,2149912941,2147342710,1171,2,15,26889
1367967355,5808,152.2899932861328000,20.5228996276855470,35.1025009155273440,212.3282928466797000,150.2438049316406200,20.5390491485595700,30.8898792266845700,91,126,87,82,63,14598,2148958116,2150089929,2152177782,2147897462,2148057563,2148621577,2150098166,2147360932,468,2,15,11763
1367967434,5807,148.6100006103515600,20.7702007293701170,35.1315994262695300,212.1636962890625000,143.8439025878906200,20.7350502014160160,30.8134193420410160,95,124,88,84,62,14589,2149260836,2150551990,2152804864,2147903661,2148174683,2148845385,2150352155,2147381705,887,2,15,27354
1367967513,5803,144.2400054931640600,20.9141998291015620,35.1577987670898440,213.7608032226562500,137.2769927978515600,20.9362506866455080,30.6410999298095700,98,123,87,83,62,14590,2149717312,2151241362,2153710692,2147913380,2148357440,2149173641,2150724845,2147414025,1087,1,15,36398
1367967580,5808,140.3500061035156200,21.1553001403808600,35.1847991943359400,215.8719024658203000,130.8863983154297000,21.1321601867675780,30.4458503723144530,109,123,87,83,62,14577,2150182162,2151939026,2154649435,2147926326,2148538825,2149500086,2151097490,2147444269,338,2,15,42131
1367967650,5811,136.6799926757812500,21.2975997924804700,35.2052993774414060,217.6349029541015600,125.9714965820312500,21.2828998565673830,30.2898406982421880,117,124,88,83,61,14571,2150686418,2152673398,2155587510,2147939300,2148731785,2149836342,2151465005,2147477074,96,2,15,36523
1367967729,5810,132.7100067138672000,21.3994007110595700,35.2209014892578100,219.7008972167968800,122.1178970336914000,21.4011192321777340,30.1332607269287100,124,127,90,81,62,14561,2151423926,2153747227,2156980150,2147956324,2149023030,2150321216,2152000713,2147525577,3559,2,16,60573
1367967820,5811,128.5599975585937500,21.5713996887207030,35.2453002929687500,222.5325012207031200,117.0017013549804700,21.5581607818603500,29.9233398437500000,131,123,92,81,62,14546,2152308516,2154976283,2158476900,2147980589,2149384146,2150864054,2152585810,2147581019,3427,2,15,10218
1367967911,5808,124.9599990844726600,21.7194995880126950,35.2634010314941400,224.5543975830078000,112.2433013916015600,21.7042808532714840,29.7606697082519530,142,128,92,83,62,14541,2153322752,2156411510,2160241636,2148009462,2149792594,2151465673,2153207936,2147641033,2470,2,16,39796
1367968041,5807,121.3000030517578100,21.8689994812011720,35.2798004150390600,227.6056976318359400,107.1800994873046900,21.8598308563232420,29.5453796386718750,153,128,89,82,60,14520,2154651337,2158224667,2162344027,2148045467,2150318125,2152171748,2153924580,2147710537,2389,1,15,39886
1367968216,5807,117.2500000000000000,21.9806995391845700,35.2900009155273440,229.3016052246093800,103.5477981567382800,21.9714698791503900,29.4166297912597660,154,128,91,84,60,14512,2156756626,2161049627,2165539218,2148104914,2151152082,2153266541,2155014838,2147818971,2444,2,16,6172
1367968326,5808,112.4400024414062500,22.0748996734619140,35.2925987243652340,230.3383941650390600,100.4232025146484400,22.0675392150878900,29.3268699645996100,156,125,93,83,59,14506,2159813641,2164998290,2169811748,2148201883,2152364379,2154867913,2156564333,2147973001,2630,2,16,41606
1367968393,5823,108.4800033569336000,22.2483997344970700,35.3115005493164060,232.2100067138672000,95.3304367065429700,22.2241992950439450,29.1725597381591800,156,124,92,83,59,14508,2162818203,2168851657,2173904137,2148295442,2153582436,2156464484,2158077732,2148137270,2689,2,15,23039
1367968472,5807,104.0599975585937500,22.3780994415283200,35.3310012817382800,234.6988067626953000,90.6149673461914000,22.3693294525146500,28.9952907562255860,137,117,91,83,60,14522,2166738249,2173742710,2178951524,2148442322,2155354486,2158710217,2160114194,2148353188,2909,2,15,37845
1367968539,5808,100.6500015258789000,22.5072002410888670,35.3459014892578100,236.6844024658203000,86.6546173095703100,22.4912796020507800,28.8528499603271500,100,116,89,82,58,14551,2169978075,2177645897,2182953426,2148592137,2157029897,2160827584,2161982994,2148544018,2931,2,15,35008
1367968597,5807,98.1200027465820300,22.5659008026123050,35.3538017272949200,237.8834075927734400,84.6098709106445300,22.5542697906494140,28.7717704772949220,98,113,89,82,59,14550,2172423570,2180492141,2185754934,2148706806,2158458752,2162591542,2163479094,2148694619,3040,2,16,401
1367968652,5809,95.9700012207031200,22.6296005249023440,35.3577003479003900,238.6441040039062500,82.3736419677734400,22.6231708526611330,28.7086601257324220,97,115,88,81,58,14551,2175077878,2183511131,2188618294,2148835638,2160079963,2164591222,2165116699,2148858441,2945,2,15,9793
1367968707,5808,94.1200027465820300,22.6956005096435550,35.3650016784668000,239.5148010253906200,80.3342132568359400,22.6860294342041000,28.6432399749755860,93,115,89,82,59,14546,2177366921,2186175414,2191180672,2148950052,2161481682,2166259629,2166464438,2148997421,2628,2,15,32356
1367968774,5810,92.2500000000000000,22.7651004791259770,35.3731002807617200,240.4754943847656200,77.9555664062500000,22.7593593597412100,28.5697898864746100,88,119,91,83,56,14548,2180486610,2189968384,2195053961,2149115483,2163402861,2168597769,2168337755,2149190528,2131,1,16,1655
1367968853,5809,90.3099975585937500,22.7987995147705080,35.3767013549804700,242.0464935302734400,76.7456970214843800,22.7966594696044920,28.4839096069335940,86,117,91,82,57,14547,2183258240,2192940315,2197736100,2149259410,2165484681,2171038802,2170234377,2149375113,1220,2,16,63058
1367968932,5807,87.7300033569336000,22.8383998870849600,35.3777008056640600,243.1777038574218800,75.2998886108398400,22.8412494659423830,28.4151401519775400,77,121,89,82,58,14552,2188132553,2198347053,2202925942,2149580964,2168989878,2175188672,2173493302,2149687926,788,2,15,55389
1367968987,5806,85.1399993896484400,22.8857002258300780,35.3804016113281250,243.0538940429687500,73.9243011474609400,22.8836803436279300,28.4034309387207030,75,117,87,82,57,14549,2192882852,2203471058,2207672868,2149855981,2172743259,2179569545,2176821156,2150008822,745,2,16,25738
1367969042,5806,82.5199966430664000,22.9507007598876950,35.3833999633789060,243.3979034423828000,71.7247467041015600,22.9515495300292970,28.3606891632080080,75,120,89,83,57,14538,2198966701,2210348534,2214554642,2150323126,2177134253,2184608402,2180657481,2150396699,693,2,15,50053
1367969097,5806,79.9800033569336000,23.0294990539550780,35.3871994018554700,244.3282928466797000,69.5177307128906200,23.0196609497070300,28.2916297912597660,72,122,90,83,58,14537,2201760521,2212604708,2215777280,2150531035,2180459410,2188197156,2183107794,2150641408,715,2,16,26705
1367969152,5806,77.6399993896484400,23.0454006195068360,35.3889007568359400,245.1725006103515600,68.7053833007812500,23.0447406768798830,28.2440700531005860,72,123,88,84,57,14530,2213525714,2226557403,2230296347,2151453485,2188707428,2197967268,2190945435,2151424978,1199,2,16,12000
1367969207,5810,75.2200012207031200,23.0839996337890620,35.3919982910156250,245.5783996582031200,67.3488693237304700,23.0866203308105470,28.2095108032226560,69,122,92,84,60,14534,2198768548,2206788251,2207466752,2150484699,2182405449,2189019446,2182370331,2150560932,1393,2,16,25986
1367969265,5809,72.6999969482421900,23.1082992553710940,35.3928985595703100,246.1477050781250000,66.7037124633789000,23.1065406799316400,28.1763496398925780,66,123,89,83,59,14527,2181611611,2185379712,2184590299,2149493138,2170989120,2174084900,2169027382,2149271323,1489,2,16,35731
1367969320,5807,70.4400024414062500,23.1609001159667970,35.3935012817382800,246.5682983398437500,65.1259231567382800,23.1552600860595700,28.1382808685302730,67,123,91,85,57,14522,2209353974,2218737618,2219836480,2151766518,2190204434,2197308580,2188096676,2151211328,1312,2,16,64234
1367969375,5805,68.1800003051757800,23.1823005676269530,35.3950996398925800,247.0426025390625000,64.3451385498046900,23.1793804168701170,28.1079101562500000,66,123,91,85,55,14521,2186764233,2190690532,2189446445,2149976128,2176192118,2179390107,2172592146,2149639076,1669,1,16,3955
1367969430,5803,65.8899993896484400,23.1993999481201170,35.3941993713378900,247.4080963134765600,63.7451210021972660,23.1979103088378900,28.0846099853515620,61,123,91,85,58,14520,2189048658,2192804836,2191325339,2150251721,2178836278,2181993408,2174240786,2149823085,1935,2,16,41840
1367969485,5809,63.5699996948242200,23.2444000244140620,35.3930015563964840,247.7433929443359400,62.3833007812500000,23.2399806976318360,28.0528507232666000,62,125,90,83,58,14519,2221378075,2230787574,2230912201,2153608356,2202547218,2209597942,2196000603,2152219876,1959,1,16,12030
1367969540,5808,61.2799987792968750,23.2775993347167970,35.3927993774414060,247.8540039062500000,60.9833183288574200,23.2832393646240230,28.0307903289794920,63,125,90,84,54,14517,2208655213,2214523099,2212987072,2152499117,2195435483,2200197421,2187813522,2151362742,2208,1,16,62103
1367969598,5818,58.9700012207031250,23.3152008056640620,35.3889999389648440,247.8289031982422000,60.0804901123046900,23.3111495971679700,28.0206909179687500,62,124,94,85,56,14511,2195089984,2197906624,2195465188,2151239561,2185857526,2188244278,2177783378,2150304256,1767,1,16,47515
1367969653,5807,56.8600006103515600,23.3236007690429700,35.3857002258300800,247.2375030517578000,59.6423492431640600,23.3246898651123050,28.0409507751464840,61,124,90,85,58,14520,2198735524,2201317760,2198612635,2151776704,2189483629,2191798381,2180147830,2150598098,1316,2,16,15501
1367969708,5810,54.7500000000000000,23.3672008514404300,35.3866004943847660,246.9907073974609400,58.3852691650390600,23.3635501861572270,28.0361194610595700,60,123,92,85,55,14516,2211342729,2214669339,2211672283,2153440932,2202442642,2205867666,2190472905,2151731126,1042,1,16,49578
1367969763,5807,52.7200012207031250,23.3850002288818360,35.3814010620117200,246.4853973388672000,57.5003395080566400,23.3909091949462900,28.0471305847167970,61,122,92,84,56,14516,2269249536,2280029275,2279547245,2161985024,2250422774,2260315602,2232581668,2156782034,786,2,16,52911
1367969818,5805,50.7999992370605500,23.4046001434326170,35.3816986083984400,246.1840057373047000,56.8690490722656250,23.4104194641113280,28.0523700714111330,58,120,92,84,58,14512,2228311789,2232011392,2228857334,2156436406,2217390235,2221450221,2201634953,2153235510,348,2,15,63105
1367969873,5812,48.9300003051757800,23.4433002471923830,35.3801994323730500,245.8634033203125000,55.8057098388671900,23.4433097839355470,28.0531902313232420,59,122,92,86,56,14515,2240206061,2244837430,2241853577,2158865133,2228718400,2233465152,2210441289,2154406372,3582,1,16,57715
1367969952,5810,45.9000015258789060,23.5095996856689450,35.3772010803222660,245.3486022949218800,53.4333686828613300,23.5166893005371100,28.0464401245117200,56,125,92,85,60,14519,2286734610,2295254729,2294116681,2168696411,2267980050,2275886756,2242172379,2158923465,1799,2,15,24148
1367970007,5809,43.2599983215332000,23.5746002197265620,35.3778991699218750,244.9570007324218800,51.5205993652343750,23.5758705139160160,28.0399303436279300,59,121,91,85,59,14516,2371552118,2389295826,2393716772,2188745051,2339695762,2355242980,2302765622,2167671881,3095,1,16,61832
1367970062,5807,40.7099990844726560,23.6543998718261720,35.3782005310058600,244.7687988281250000,48.8329582214355500,23.6590499877929700,28.0147895812988280,57,121,90,85,58,14517,2320055542,2328056137,2326458898,2179622061,2308579574,2316645632,2270424585,2163394706,2864,1,16,64730
1367970117,5809,38.3199996948242200,23.6889991760253900,35.3801994323730500,244.8939056396484400,47.6403007507324200,23.6959800720214840,27.9945297241210940,54,120,93,86,56,14514,2297902482,2300929490,2297662848,2176093851,2291714395,2295845842,2253012342,2161438409,3323,1,16,32148
1367970172,5808,35.9300003051757800,23.7353992462158200,35.3821983337402340,244.9900054931640600,46.3460388183593750,23.7360591888427730,27.9742603302001950,53,119,91,85,55,14520,2271291958,2270820196,2266206500,2171985892,2260941988,2259943707,2225574582,2158300900,3344,1,16,18754
1367970227,5805,33.8100013732910160,23.8819007873535160,35.3834991455078100,244.7792053222656200,42.0312309265136700,23.8697299957275400,27.9302597045898440,53,121,93,86,56,14515,2253584859,2250668388,2245008228,2168323776,2250567506,2247284544,2215446985,2156934226,2634,1,16,45918
1367970285,5810,31.9599990844726560,24.0263996124267580,35.3839988708496100,244.7276000976562500,37.7835006713867200,24.0014095306396500,27.8799800872802730,54,120,95,84,55,14517,2304887917,2304163392,2299947401,2184696512,2305963081,2303246409,2254536612,2163440045,2579,1,16,14132
1367970352,5809,29.8600006103515620,24.1040992736816400,35.3875007629394500,245.1528015136718800,34.3375015258789060,24.1082992553710940,27.8187408447265620,53,121,92,84,59,14521,2284117019,2280323538,2274449344,2179955437,2293352182,2287597632,2242056667,2161417755,3253,1,17,16354
1367970419,5805,28.1100006103515620,24.1898002624511720,35.3874015808105500,245.6938934326172000,31.3202896118164060,24.2019405364990230,27.7579708099365230,53,122,91,84,57,14517,2335719049,2333449554,2329346752,2198819730,2342060534,2335403163,2276094683,2168079021,321,1,16,50209
1367970498,5808,26.3099994659423830,24.2252006530761720,35.3880004882812500,245.9190979003906200,30.1620502471923830,24.2378997802734380,27.7339591979980470,52,119,92,84,55,14523,2311903579,2308711222,2304970505,2195401243,2320397458,2311479195,2258442395,2166152758,291,2,15,2134
